Location: McFarlands Corners
(41.4117°N, 81.3382°W)
Time: 13:18:20
(UTC+00:00)

Courier 1B Rocket - Pass Details

Date: 17 February 2026
Orbit: 920 x 1201 km, 28.2° (Epoch: 10 March)

Event Time Altitude Azimuth Distance (km) Brightness Sun altitude
Rises 03:00:57 0° 246° (WSW) 3,597 8.3 -44.7°
Enters shadow 03:02:40 - 240° (WSW) 3,055 7.9 -44.9°
Reaches altitude 10° 03:03:56 10° 234° (SW) 2,684 - -45.1°
Maximum altitude 03:09:09 26° 180° (S) 1,848 - -46.0°
Drops below altitude 10° 03:14:39 10° 127° (SE) 2,834 - -46.9°
Sets 03:17:54 0° 115° (ESE) 3,840 - -47.4°
